owner,sensor,date,latitude,longitude,vertical_datum,wind_speed,wind_to_direction,wind_speed_of_gust,qcFlag 
TABS,ioos:station:wmo:42045:1,2003-05-01T00:10:00Z,26.2168,-96.4998,4.0,4.829575551,50.37637717,8.44,'11111222,11111222,11111222' 
TABS,ioos:station:wmo:42045:1,2003-05-01T00:39:00Z,26.2168,-96.4998,4.0,6.001808061,41.28440389,10.05,'11111222,11111222,11111222' 
TABS,ioos:station:wmo:42045:1,2003-05-01T01:09:00Z,26.2168,-96.4998,4.0,4.626542986,61.60662606,8.65,'11111222,11111222,11111222' 
TABS,ioos:station:wmo:42045:1,2003-05-01T01:39:00Z,26.2168,-96.4998,4.0,4.653815639,74.29097799,8.33,'11111222,11111222,11111222' 
TABS,ioos:station:wmo:42045:1,2003-05-01T02:09:00Z,26.2168,-96.4998,4.0,4.885284024,75.05308721,9.41,'11111222,11111222,11111222' 
TABS,ioos:station:wmo:42045:1,2003-05-01T02:39:00Z,26.2168,-96.4998,4.0,6.486979266,46.6862008,11.2,'11111222,11111222,11111222' 
TABS,ioos:station:wmo:42045:1,2003-05-01T03:09:00Z,26.2168,-96.4998,4.0,5.10881591,102.8941348,10.38,'11111222,11111222,11111222' 
TABS,ioos:station:wmo:42045:1,2003-05-01T03:39:00Z,26.2168,-96.4998,4.0,5.180212351,122.0643497,8.54,'11111222,11111222,11111222' 
TABS,ioos:station:wmo:42045:1,2003-05-01T04:09:00Z,26.2168,-96.4998,4.0,4.686331188,69.5151299,10.21,'11111222,11111222,11111222' 
TABS,ioos:station:wmo:42045:1,2003-05-01T04:39:00Z,26.2168,-96.4998,4.0,4.848762729,103.2341437,8.09,'11111222,11111222,11111222' 
TABS,ioos:station:wmo:42045:1,2003-05-01T05:09:00Z,26.2168,-96.4998,4.0,4.041435389,71.83366503,8.13,'11111222,11111222,11111222' 
TABS,ioos:station:wmo:42045:1,2003-05-01T05:39:00Z,26.2168,-96.4998,4.0,1412.799349,44.99968431,8.29,'11144222,11111222,11111222' 
TABS,ioos:station:wmo:42045:1,2003-05-01T06:09:00Z,26.2168,-96.4998,4.0,1412.799349,44.99968431,7.36,'11144222,11111222,11111222' 
TABS,ioos:station:wmo:42045:1,2003-05-01T06:39:00Z,26.2168,-96.4998,4.0,3.918073506,71.70340347,6.7,'11111222,11111222,11111222' 
TABS,ioos:station:wmo:42045:1,2003-05-01T07:10:00Z,26.2168,-96.4998,4.0,4.645696934,70.90164921,9.76,'11111222,11111222,11111222' 
TABS,ioos:station:wmo:42045:1,2003-05-01T07:39:00Z,26.2168,-96.4998,4.0,6.504682928,49.55124384,10.93,'11111222,11111222,11111222' 
TABS,ioos:station:wmo:42045:1,2003-05-01T08:09:00Z,26.2168,-96.4998,4.0,4.825702021,71.26430576,10.06,'11111222,11111222,11111222' 
TABS,ioos:station:wmo:42045:1,2003-05-01T08:39:00Z,26.2168,-96.4998,4.0,5.08587259,57.9345629,9.49,'11111222,11111222,11111222' 
TABS,ioos:station:wmo:42045:1,2003-05-01T09:09:00Z,26.2168,-96.4998,4.0,3.852064382,105.0467776,8.94,'11111222,11111222,11111222' 
TABS,ioos:station:wmo:42045:1,2003-05-01T09:39:00Z,26.2168,-96.4998,4.0,3.018227957,101.2730978,7.33,'11111222,11111222,11111222' 
TABS,ioos:station:wmo:42045:1,2003-05-01T10:09:00Z,26.2168,-96.4998,4.0,2.506830668,96.64347949,6.59,'11111222,11111222,11111222' 
TABS,ioos:station:wmo:42045:1,2003-05-01T10:39:00Z,26.2168,-96.4998,4.0,2.960962681,113.2751819,6.47,'11111222,11111222,11111222' 
TABS,ioos:station:wmo:42045:1,2003-05-01T11:09:00Z,26.2168,-96.4998,4.0,3.004030626,95.54019604,5.93,'11111222,11111222,11111222' 
TABS,ioos:station:wmo:42045:1,2003-05-01T11:39:00Z,26.2168,-96.4998,4.0,3.521647342,134.3100401,6.15,'11111222,11111222,11111222' 
TABS,ioos:station:wmo:42045:1,2003-05-01T12:09:00Z,26.2168,-96.4998,4.0,3.288038929,126.5914236,6.53,'11111222,11111222,11111222' 
TABS,ioos:station:wmo:42045:1,2003-05-01T12:39:00Z,26.2168,-96.4998,4.0,4.391639785,153.4935673,6.53,'11111222,11111222,11111222' 
TABS,ioos:station:wmo:42045:1,2003-05-01T13:09:00Z,26.2168,-96.4998,4.0,2.826039632,131.7012101,5.69,'11111222,11111222,11111222' 
TABS,ioos:station:wmo:42045:1,2003-05-01T13:39:00Z,26.2168,-96.4998,4.0,3.664000546,143.0991241,5.57,'11111222,11111222,11111222' 
TABS,ioos:station:wmo:42045:1,2003-05-01T14:09:00Z,26.2168,-96.4998,4.0,3.292795165,95.05305606,5.93,'11111222,11111222,11111222' 
TABS,ioos:station:wmo:42045:1,2003-05-01T14:39:00Z,26.2168,-96.4998,4.0,4.809074755,133.989321,6.74,'11111222,11111222,11111222' 
TABS,ioos:station:wmo:42045:1,2003-05-01T15:09:00Z,26.2168,-96.4998,4.0,5.056332663,142.4731598,7.31,'11111222,11111222,11111222' 
TABS,ioos:station:wmo:42045:1,2003-05-01T15:39:00Z,26.2168,-96.4998,4.0,5.063328944,141.8176507,6.82,'11111222,11111222,11111222' 
TABS,ioos:station:wmo:42045:1,2003-05-01T16:09:00Z,26.2168,-96.4998,4.0,3.640054945,142.815591,5.75,'11111222,11111222,11111222' 
TABS,ioos:station:wmo:42045:1,2003-05-01T16:39:00Z,26.2168,-96.4998,4.0,2.654091182,127.3451665,6.02,'11111222,11111222,11111222' 
TABS,ioos:station:wmo:42045:1,2003-05-01T17:09:00Z,26.2168,-96.4998,4.0,3.048294605,136.1965706,5.31,'11111222,11111222,11111222' 
TABS,ioos:station:wmo:42045:1,2003-05-01T17:39:00Z,26.2168,-96.4998,4.0,3.189623802,124.1388012,5.14,'11111222,11111222,11111222' 
TABS,ioos:station:wmo:42045:1,2003-05-01T18:09:00Z,26.2168,-96.4998,4.0,3.475226611,130.5658556,5.67,'11111222,11111222,11111222' 
TABS,ioos:station:wmo:42045:1,2003-05-01T18:39:00Z,26.2168,-96.4998,4.0,3.02312752,123.5327156,5.88,'11111222,11111222,11111222' 
TABS,ioos:station:wmo:42045:1,2003-05-01T19:09:00Z,26.2168,-96.4998,4.0,2.168432614,76.66831284,5.68,'11111222,11111222,11111222' 
TABS,ioos:station:wmo:42045:1,2003-05-01T19:39:00Z,26.2168,-96.4998,4.0,2.555660384,58.11309188,6.01,'11111222,11111222,11111222' 
TABS,ioos:station:wmo:42045:1,2003-05-01T20:09:00Z,26.2168,-96.4998,4.0,2.26079632,88.47881298,5.61,'11111222,11111222,11111222' 
TABS,ioos:station:wmo:42045:1,2003-05-01T20:39:00Z,26.2168,-96.4998,4.0,2.079663434,80.31081518,4.47,'11111222,11111222,11111222' 
TABS,ioos:station:wmo:42045:1,2003-05-01T21:09:00Z,26.2168,-96.4998,4.0,1.713300908,115.2192848,4.58,'11111222,11111222,11111222' 
TABS,ioos:station:wmo:42045:1,2003-05-01T21:39:00Z,26.2168,-96.4998,4.0,2.337541443,109.7531267,4.68,'11111222,11111222,11111222' 
TABS,ioos:station:wmo:42045:1,2003-05-01T22:09:00Z,26.2168,-96.4998,4.0,2.73,112.620233,4.86,'11111222,11111222,11111222' 
TABS,ioos:station:wmo:42045:1,2003-05-01T22:39:00Z,26.2168,-96.4998,4.0,3.233109958,112.3612252,5.37,'11111222,11111222,11111222' 
TABS,ioos:station:wmo:42045:1,2003-05-01T23:09:00Z,26.2168,-96.4998,4.0,2.983035367,79.1793675,6.34,'11111222,11111222,11111222' 
TABS,ioos:station:wmo:42045:1,2003-05-01T23:39:00Z,26.2168,-96.4998,4.0,3.479224051,45.69837706,6.73,'11111222,11111222,11111222' 
TABS,ioos:station:wmo:42045:1,2003-05-02T00:09:00Z,26.2168,-96.4998,4.0,4.429864558,30.67511242,7.83,'11111222,11111222,11111222' 
TABS,ioos:station:wmo:42045:1,2003-05-02T00:39:00Z,26.2168,-96.4998,4.0,3.928676622,65.32635527,7.58,'11111222,11111222,11111222' 
TABS,ioos:station:wmo:42045:1,2003-05-02T01:09:00Z,26.2168,-96.4998,4.0,4.698978612,50.00675903,8.63,'11111222,11111222,11111222' 
TABS,ioos:station:wmo:42045:1,2003-05-02T01:40:00Z,26.2168,-96.4998,4.0,1412.799349,44.99968431,9.39,'11144222,11111222,11111222' 
TABS,ioos:station:wmo:42045:1,2003-05-02T02:10:00Z,26.2168,-96.4998,4.0,1412.799349,44.99968431,10.01,'11144222,11111222,11111222' 
TABS,ioos:station:wmo:42045:1,2003-05-02T02:40:00Z,26.2168,-96.4998,4.0,1412.799349,44.99968431,9.89,'11144222,11111222,11111222' 
TABS,ioos:station:wmo:42045:1,2003-05-02T03:10:00Z,26.2168,-96.4998,4.0,1412.799349,44.99968431,10.15,'11144222,11111222,11111222' 
TABS,ioos:station:wmo:42045:1,2003-05-02T03:40:00Z,26.2168,-96.4998,4.0,1412.799349,44.99968431,8.83,'11144222,11111222,11111222' 
TABS,ioos:station:wmo:42045:1,2003-05-02T04:10:00Z,26.2168,-96.4998,4.0,1412.799349,44.99968431,7.63,'11144222,11111222,11111222' 
TABS,ioos:station:wmo:42045:1,2003-05-02T04:40:00Z,26.2168,-96.4998,4.0,1412.799349,44.99968431,7.89,'11144222,11111222,11111222' 
TABS,ioos:station:wmo:42045:1,2003-05-02T05:10:00Z,26.2168,-96.4998,4.0,1412.799349,44.99968431,8.31,'11144222,11111222,11111222' 
TABS,ioos:station:wmo:42045:1,2003-05-02T05:39:00Z,26.2168,-96.4998,4.0,1412.799349,44.99968431,7.67,'11144222,11111222,11111222' 
TABS,ioos:station:wmo:42045:1,2003-05-02T06:10:00Z,26.2168,-96.4998,4.0,1412.799349,44.99968431,7.16,'11144222,11111222,11111222' 
TABS,ioos:station:wmo:42045:1,2003-05-02T06:40:00Z,26.2168,-96.4998,4.0,1412.799349,44.99968431,8.38,'11144222,11111222,11111222' 
TABS,ioos:station:wmo:42045:1,2003-05-02T07:09:00Z,26.2168,-96.4998,4.0,1412.799349,44.99968431,9.0,'11144222,11111222,11111222' 
TABS,ioos:station:wmo:42045:1,2003-05-02T07:40:00Z,26.2168,-96.4998,4.0,1412.799349,44.99968431,9.41,'11144222,11111222,11111222' 
TABS,ioos:station:wmo:42045:1,2003-05-02T08:09:00Z,26.2168,-96.4998,4.0,1412.799349,44.99968431,9.18,'11144222,11111222,11111222' 
TABS,ioos:station:wmo:42045:1,2003-05-02T08:40:00Z,26.2168,-96.4998,4.0,1412.799349,44.99968431,10.74,'11144222,11111222,11111222' 
TABS,ioos:station:wmo:42045:1,2003-05-02T09:09:00Z,26.2168,-96.4998,4.0,1412.799349,44.99968431,8.21,'11144222,11111222,11111222' 
TABS,ioos:station:wmo:42045:1,2003-05-02T09:40:00Z,26.2168,-96.4998,4.0,1412.799349,44.99968431,5.84,'11144222,11111222,11111222' 
TABS,ioos:station:wmo:42045:1,2003-05-02T10:10:00Z,26.2168,-96.4998,4.0,1412.799349,44.99968431,5.89,'11144222,11111222,11111222' 
TABS,ioos:station:wmo:42045:1,2003-05-02T10:40:00Z,26.2168,-96.4998,4.0,1412.799349,44.99968431,6.47,'11144222,11111222,11111222' 
TABS,ioos:station:wmo:42045:1,2003-05-02T11:10:00Z,26.2168,-96.4998,4.0,1412.799349,44.99968431,7.54,'11144222,11111222,11111222' 
TABS,ioos:station:wmo:42045:1,2003-05-02T11:40:00Z,26.2168,-96.4998,4.0,1412.799349,44.99968431,7.15,'11144222,11111222,11111222' 
TABS,ioos:station:wmo:42045:1,2003-05-02T12:09:00Z,26.2168,-96.4998,4.0,1412.799349,44.99968431,6.65,'11144222,11111222,11111222' 
TABS,ioos:station:wmo:42045:1,2003-05-02T12:40:00Z,26.2168,-96.4998,4.0,1412.799349,44.99968431,5.19,'11144222,11111222,11111222' 
TABS,ioos:station:wmo:42045:1,2003-05-02T13:09:00Z,26.2168,-96.4998,4.0,1412.799349,44.99968431,5.34,'11144222,11111222,11111222' 
TABS,ioos:station:wmo:42045:1,2003-05-02T13:39:00Z,26.2168,-96.4998,4.0,1412.799349,44.99968431,4.43,'11144222,11111222,11111222' 
TABS,ioos:station:wmo:42045:1,2003-05-02T14:09:00Z,26.2168,-96.4998,4.0,1412.799349,44.99968431,4.66,'11144222,11111222,11111222' 
TABS,ioos:station:wmo:42045:1,2003-05-02T14:39:00Z,26.2168,-96.4998,4.0,1412.799349,44.99968431,3.94,'11144222,11111222,11111222' 
TABS,ioos:station:wmo:42045:1,2003-05-02T15:10:00Z,26.2168,-96.4998,4.0,1412.799349,44.99968431,3.33,'11144222,11111222,11111222' 
TABS,ioos:station:wmo:42045:1,2003-05-02T15:40:00Z,26.2168,-96.4998,4.0,1412.799349,44.99968431,4.66,'11144222,11111222,11111222' 
TABS,ioos:station:wmo:42045:1,2003-05-02T16:09:00Z,26.2168,-96.4998,4.0,3.031171391,41.7902055,4.97,'11111222,11111222,11111222' 
TABS,ioos:station:wmo:42045:1,2003-05-02T16:40:00Z,26.2168,-96.4998,4.0,1412.799349,44.99968431,5.03,'11144222,11111222,11111222' 
TABS,ioos:station:wmo:42045:1,2003-05-02T17:10:00Z,26.2168,-96.4998,4.0,1412.799349,44.99968431,4.31,'11144222,11111222,11111222' 
TABS,ioos:station:wmo:42045:1,2003-05-02T17:39:00Z,26.2168,-96.4998,4.0,1.838477631,59.24968369,4.39,'11111222,11111222,11111222' 
TABS,ioos:station:wmo:42045:1,2003-05-02T18:09:00Z,26.2168,-96.4998,4.0,2.18,56.60116871,4.35,'11111222,11111222,11111222' 
TABS,ioos:station:wmo:42045:1,2003-05-02T18:39:00Z,26.2168,-96.4998,4.0,1412.799349,44.99968431,4.54,'11144222,11111222,11111222' 
TABS,ioos:station:wmo:42045:1,2003-05-02T19:09:00Z,26.2168,-96.4998,4.0,1412.799349,44.99968431,5.06,'11144222,11111222,11111222' 
TABS,ioos:station:wmo:42045:1,2003-05-02T19:39:00Z,26.2168,-96.4998,4.0,1412.799349,44.99968431,3.83,'11144222,11111222,11111222' 
TABS,ioos:station:wmo:42045:1,2003-05-02T20:10:00Z,26.2168,-96.4998,4.0,1412.799349,44.99968431,3.88,'11144222,11111222,11111222' 
TABS,ioos:station:wmo:42045:1,2003-05-02T20:40:00Z,26.2168,-96.4998,4.0,1412.799349,44.99968431,4.56,'11144222,11111222,11111222' 
TABS,ioos:station:wmo:42045:1,2003-05-02T21:09:00Z,26.2168,-96.4998,4.0,1412.799349,44.99968431,4.52,'11144222,11111222,11111222' 
TABS,ioos:station:wmo:42045:1,2003-05-02T21:39:00Z,26.2168,-96.4998,4.0,1412.799349,44.99968431,4.65,'11144222,11111222,11111222' 
TABS,ioos:station:wmo:42045:1,2003-05-02T22:09:00Z,26.2168,-96.4998,4.0,1412.799349,44.99968431,4.63,'11144222,11111222,11111222' 
TABS,ioos:station:wmo:42045:1,2003-05-02T22:40:00Z,26.2168,-96.4998,4.0,1412.799349,44.99968431,5.01,'11144222,11111222,11111222' 
TABS,ioos:station:wmo:42045:1,2003-05-02T23:10:00Z,26.2168,-96.4998,4.0,1412.799349,44.99968431,5.3,'11144222,11111222,11111222' 
TABS,ioos:station:wmo:42045:1,2003-05-02T23:39:00Z,26.2168,-96.4998,4.0,1412.799349,44.99968431,5.44,'11144222,11111222,11111222' 
TABS,ioos:station:wmo:42045:1,2003-05-03T00:10:00Z,26.2168,-96.4998,4.0,1412.799349,44.99968431,5.58,'11144222,11111222,11111222' 
TABS,ioos:station:wmo:42045:1,2003-05-03T00:40:00Z,26.2168,-96.4998,4.0,1412.799349,44.99968431,5.22,'11144222,11111222,11111222' 
TABS,ioos:station:wmo:42045:1,2003-05-03T01:09:00Z,26.2168,-96.4998,4.0,1412.799349,44.99968431,5.46,'11144222,11111222,11111222' 
TABS,ioos:station:wmo:42045:1,2003-05-03T01:40:00Z,26.2168,-96.4998,4.0,1412.799349,44.99968431,5.59,'11144222,11111222,11111222' 
TABS,ioos:station:wmo:42045:1,2003-05-03T02:09:00Z,26.2168,-96.4998,4.0,1412.799349,44.99968431,5.05,'11144222,11111222,11111222' 
TABS,ioos:station:wmo:42045:1,2003-05-03T02:39:00Z,26.2168,-96.4998,4.0,1412.799349,44.99968431,5.77,'11144222,11111222,11111222' 
TABS,ioos:station:wmo:42045:1,2003-05-03T03:09:00Z,26.2168,-96.4998,4.0,1412.799349,44.99968431,6.39,'11144222,11111222,11111222' 
TABS,ioos:station:wmo:42045:1,2003-05-03T03:40:00Z,26.2168,-96.4998,4.0,1412.799349,44.99968431,6.45,'11144222,11111222,11111222' 
TABS,ioos:station:wmo:42045:1,2003-05-03T04:09:00Z,26.2168,-96.4998,4.0,1412.799349,44.99968431,5.58,'11144222,11111222,11111222' 
TABS,ioos:station:wmo:42045:1,2003-05-03T04:40:00Z,26.2168,-96.4998,4.0,1412.799349,44.99968431,6.29,'11144222,11111222,11111222' 
TABS,ioos:station:wmo:42045:1,2003-05-03T05:09:00Z,26.2168,-96.4998,4.0,1412.799349,44.99968431,6.49,'11144222,11111222,11111222' 
TABS,ioos:station:wmo:42045:1,2003-05-03T05:40:00Z,26.2168,-96.4998,4.0,1412.799349,44.99968431,6.49,'11144222,11111222,11111222' 
TABS,ioos:station:wmo:42045:1,2003-05-03T06:09:00Z,26.2168,-96.4998,4.0,1412.799349,44.99968431,6.59,'11144222,11111222,11111222' 
TABS,ioos:station:wmo:42045:1,2003-05-03T06:39:00Z,26.2168,-96.4998,4.0,1412.799349,44.99968431,7.11,'11144222,11111222,11111222' 
TABS,ioos:station:wmo:42045:1,2003-05-03T07:10:00Z,26.2168,-96.4998,4.0,1412.799349,44.99968431,6.04,'11144222,11111222,11111222' 
TABS,ioos:station:wmo:42045:1,2003-05-03T07:39:00Z,26.2168,-96.4998,4.0,1412.799349,44.99968431,6.14,'11144222,11111222,11111222' 
TABS,ioos:station:wmo:42045:1,2003-05-03T08:09:00Z,26.2168,-96.4998,4.0,1412.799349,44.99968431,5.99,'11144222,11111222,11111222' 
TABS,ioos:station:wmo:42045:1,2003-05-03T08:40:00Z,26.2168,-96.4998,4.0,1412.799349,44.99968431,6.0,'11144222,11111222,11111222' 
TABS,ioos:station:wmo:42045:1,2003-05-03T09:10:00Z,26.2168,-96.4998,4.0,1412.799349,44.99968431,6.07,'11144222,11111222,11111222' 
TABS,ioos:station:wmo:42045:1,2003-05-03T09:40:00Z,26.2168,-96.4998,4.0,1412.799349,44.99968431,6.49,'11144222,11111222,11111222' 
TABS,ioos:station:wmo:42045:1,2003-05-03T10:09:00Z,26.2168,-96.4998,4.0,1412.799349,44.99968431,6.22,'11144222,11111222,11111222' 
TABS,ioos:station:wmo:42045:1,2003-05-03T10:40:00Z,26.2168,-96.4998,4.0,1412.799349,44.99968431,6.25,'11144222,11111222,11111222' 
TABS,ioos:station:wmo:42045:1,2003-05-03T11:09:00Z,26.2168,-96.4998,4.0,1412.799349,44.99968431,7.49,'11144222,11111222,11111222' 
TABS,ioos:station:wmo:42045:1,2003-05-03T11:40:00Z,26.2168,-96.4998,4.0,1412.799349,44.99968431,5.72,'11144222,11111222,11111222' 
TABS,ioos:station:wmo:42045:1,2003-05-03T12:39:00Z,26.2168,-96.4998,4.0,1412.799349,44.99968431,5.78,'11144222,11111222,11111222' 
TABS,ioos:station:wmo:42045:1,2003-05-03T13:09:00Z,26.2168,-96.4998,4.0,1412.799349,44.99968431,5.45,'11144222,11111222,11111222' 
TABS,ioos:station:wmo:42045:1,2003-05-03T13:39:00Z,26.2168,-96.4998,4.0,1412.799349,44.99968431,5.01,'11144222,11111222,11111222' 
TABS,ioos:station:wmo:42045:1,2003-05-03T14:09:00Z,26.2168,-96.4998,4.0,1412.799349,44.99968431,5.53,'11144222,11111222,11111222' 
TABS,ioos:station:wmo:42045:1,2003-05-03T14:39:00Z,26.2168,-96.4998,4.0,1412.799349,44.99968431,5.28,'11144222,11111222,11111222' 
TABS,ioos:station:wmo:42045:1,2003-05-03T15:09:00Z,26.2168,-96.4998,4.0,1412.799349,44.99968431,4.57,'11144222,11111222,11111222' 
TABS,ioos:station:wmo:42045:1,2003-05-03T15:39:00Z,26.2168,-96.4998,4.0,1412.799349,44.99968431,3.46,'11144222,11111222,11111222' 
TABS,ioos:station:wmo:42045:1,2003-05-03T16:09:00Z,26.2168,-96.4998,4.0,1412.799349,44.99968431,3.43,'11144222,11111222,11111222' 
TABS,ioos:station:wmo:42045:1,2003-05-03T16:40:00Z,26.2168,-96.4998,4.0,0.316227766,34.69486194,2.77,'11111222,11111222,11111222' 
TABS,ioos:station:wmo:42045:1,2003-05-03T17:09:00Z,26.2168,-96.4998,4.0,0.588217647,107.8192682,2.72,'11111222,11111222,11111222' 
TABS,ioos:station:wmo:42045:1,2003-05-03T17:39:00Z,26.2168,-96.4998,4.0,2.023709465,148.7451951,3.68,'11111222,11111222,11111222' 
TABS,ioos:station:wmo:42045:1,2003-05-03T18:09:00Z,26.2168,-96.4998,4.0,1.739482682,135.0003157,3.16,'11111222,11111222,11111222' 
TABS,ioos:station:wmo:42045:1,2003-05-03T18:39:00Z,26.2168,-96.4998,4.0,1.939407126,110.2106429,3.55,'11111222,11111222,11111222' 
TABS,ioos:station:wmo:42045:1,2003-05-03T19:09:00Z,26.2168,-96.4998,4.0,2.417457342,96.89024226,4.03,'11111222,11111222,11111222' 
TABS,ioos:station:wmo:42045:1,2003-05-03T19:39:00Z,26.2168,-96.4998,4.0,2.948033243,100.3573934,4.45,'11111222,11111222,11111222' 
TABS,ioos:station:wmo:42045:1,2003-05-03T20:09:00Z,26.2168,-96.4998,4.0,3.329879878,108.3809148,4.73,'11111222,11111222,11111222' 
TABS,ioos:station:wmo:42045:1,2003-05-03T20:39:00Z,26.2168,-96.4998,4.0,3.480057471,112.2909513,4.78,'11111222,11111222,11111222' 
TABS,ioos:station:wmo:42045:1,2003-05-03T21:09:00Z,26.2168,-96.4998,4.0,2.976390431,103.0094358,4.87,'11111222,11111222,11111222' 
TABS,ioos:station:wmo:42045:1,2003-05-03T21:39:00Z,26.2168,-96.4998,4.0,3.38834768,104.5287796,5.15,'11111222,11111222,11111222' 
TABS,ioos:station:wmo:42045:1,2003-05-03T22:09:00Z,26.2168,-96.4998,4.0,3.51511024,100.1594532,5.14,'11111222,11111222,11111222' 
TABS,ioos:station:wmo:42045:1,2003-05-03T22:39:00Z,26.2168,-96.4998,4.0,3.850934951,98.36195805,6.18,'11111222,11111222,11111222' 
TABS,ioos:station:wmo:42045:1,2003-05-03T23:09:00Z,26.2168,-96.4998,4.0,4.27590926,96.31100298,6.48,'11111222,11111222,11111222' 
TABS,ioos:station:wmo:42045:1,2003-05-03T23:39:00Z,26.2168,-96.4998,4.0,4.391639785,91.566199,6.32,'11111222,11111222,11111222' 
TABS,ioos:station:wmo:42045:1,2003-05-04T00:09:00Z,26.2168,-96.4998,4.0,4.19,90.00042092,6.13,'11111222,11111222,11111222' 
TABS,ioos:station:wmo:42045:1,2003-05-04T00:39:00Z,26.2168,-96.4998,4.0,5.050148513,93.63336316,7.26,'11111222,11111222,11111222' 
TABS,ioos:station:wmo:42045:1,2003-05-04T01:09:00Z,26.2168,-96.4998,4.0,5.04833636,93.29356305,7.8,'11111222,11111222,11111222' 
TABS,ioos:station:wmo:42045:1,2003-05-04T01:39:00Z,26.2168,-96.4998,4.0,5.680721785,95.96189963,9.18,'11111222,11111222,11111222' 
TABS,ioos:station:wmo:42045:1,2003-05-04T02:09:00Z,26.2168,-96.4998,4.0,5.008123401,96.07528362,7.35,'11111222,11111222,11111222' 
TABS,ioos:station:wmo:42045:1,2003-05-04T02:39:00Z,26.2168,-96.4998,4.0,5.659054691,100.1784632,8.41,'11111222,11111222,11111222' 
TABS,ioos:station:wmo:42045:1,2003-05-04T03:09:00Z,26.2168,-96.4998,4.0,5.114078607,97.5284151,8.42,'11111222,11111222,11111222' 
TABS,ioos:station:wmo:42045:1,2003-05-04T03:39:00Z,26.2168,-96.4998,4.0,5.569245909,111.2668573,8.4,'11111222,11111222,11111222' 
TABS,ioos:station:wmo:42045:1,2003-05-04T04:09:00Z,26.2168,-96.4998,4.0,4.831076485,102.3105147,7.68,'11111222,11111222,11111222' 
TABS,ioos:station:wmo:42045:1,2003-05-04T04:39:00Z,26.2168,-96.4998,4.0,4.910977499,122.104664,7.12,'11111222,11111222,11111222' 
TABS,ioos:station:wmo:42045:1,2003-05-04T05:09:00Z,26.2168,-96.4998,4.0,4.992163859,129.7177292,7.39,'11111222,11111222,11111222' 
TABS,ioos:station:wmo:42045:1,2003-05-04T05:39:00Z,26.2168,-96.4998,4.0,5.72183537,120.1054217,8.11,'11111222,11111222,11111222' 
TABS,ioos:station:wmo:42045:1,2003-05-04T06:09:00Z,26.2168,-96.4998,4.0,7.164502774,122.9806277,10.94,'11111222,11111222,11111222' 
TABS,ioos:station:wmo:42045:1,2003-05-04T06:39:00Z,26.2168,-96.4998,4.0,6.589233643,120.4570772,10.43,'11111222,11111222,11111222' 
TABS,ioos:station:wmo:42045:1,2003-05-04T07:09:00Z,26.2168,-96.4998,4.0,6.924254473,129.6681693,9.83,'11111222,11111222,11111222' 
TABS,ioos:station:wmo:42045:1,2003-05-04T07:39:00Z,26.2168,-96.4998,4.0,6.172535946,122.4288218,9.63,'11111222,11111222,11111222' 
TABS,ioos:station:wmo:42045:1,2003-05-04T08:09:00Z,26.2168,-96.4998,4.0,7.047382493,132.9302899,9.48,'11111222,11111222,11111222' 
TABS,ioos:station:wmo:42045:1,2003-05-04T08:39:00Z,26.2168,-96.4998,4.0,6.184407813,131.52615,9.12,'11111222,11111222,11111222' 
TABS,ioos:station:wmo:42045:1,2003-05-04T09:09:00Z,26.2168,-96.4998,4.0,5.571355311,105.8327705,10.24,'11111222,11111222,11111222' 
TABS,ioos:station:wmo:42045:1,2003-05-04T09:39:00Z,26.2168,-96.4998,4.0,7.255460013,137.6256917,10.28,'11111222,11111222,11111222' 
TABS,ioos:station:wmo:42045:1,2003-05-04T10:09:00Z,26.2168,-96.4998,4.0,6.964402343,145.9451409,9.6,'11111222,11111222,11111222' 
TABS,ioos:station:wmo:42045:1,2003-05-04T10:39:00Z,26.2168,-96.4998,4.0,6.462723884,146.9987199,9.78,'11111222,11111222,11111222' 
TABS,ioos:station:wmo:42045:1,2003-05-04T11:09:00Z,26.2168,-96.4998,4.0,7.902113641,145.7270289,10.97,'11111222,11111222,11111222' 
TABS,ioos:station:wmo:42045:1,2003-05-04T11:39:00Z,26.2168,-96.4998,4.0,8.400011905,149.1301084,11.68,'11111222,11111222,11111222' 
TABS,ioos:station:wmo:42045:1,2003-05-04T12:09:00Z,26.2168,-96.4998,4.0,8.378603702,150.4674468,12.11,'11111222,11111222,11111222' 
TABS,ioos:station:wmo:42045:1,2003-05-04T12:39:00Z,26.2168,-96.4998,4.0,5.704568345,68.29147513,12.13,'11111222,11111222,11111222' 
TABS,ioos:station:wmo:42045:1,2003-05-04T13:09:00Z,26.2168,-96.4998,4.0,1412.799349,44.99968431,10.85,'11144222,11111222,11111222' 
TABS,ioos:station:wmo:42045:1,2003-05-04T13:40:00Z,26.2168,-96.4998,4.0,1412.799349,44.99968431,10.42,'11144222,11111222,11111222' 
TABS,ioos:station:wmo:42045:1,2003-05-04T14:10:00Z,26.2168,-96.4998,4.0,1412.799349,44.99968431,10.73,'11144222,11111222,11111222' 
TABS,ioos:station:wmo:42045:1,2003-05-04T14:40:00Z,26.2168,-96.4998,4.0,1412.799349,44.99968431,10.45,'11144222,11111222,11111222' 
TABS,ioos:station:wmo:42045:1,2003-05-04T15:10:00Z,26.2168,-96.4998,4.0,1412.799349,44.99968431,9.85,'11144222,11111222,11111222' 
TABS,ioos:station:wmo:42045:1,2003-05-04T15:40:00Z,26.2168,-96.4998,4.0,1412.799349,44.99968431,9.94,'11144222,11111222,11111222' 
TABS,ioos:station:wmo:42045:1,2003-05-04T16:10:00Z,26.2168,-96.4998,4.0,1412.799349,44.99968431,8.97,'11144222,11111222,11111222' 
TABS,ioos:station:wmo:42045:1,2003-05-04T16:40:00Z,26.2168,-96.4998,4.0,1412.799349,44.99968431,8.94,'11144222,11111222,11111222' 
TABS,ioos:station:wmo:42045:1,2003-05-04T17:10:00Z,26.2168,-96.4998,4.0,1412.799349,44.99968431,8.69,'11144222,11111222,11111222' 
TABS,ioos:station:wmo:42045:1,2003-05-04T17:40:00Z,26.2168,-96.4998,4.0,1412.799349,44.99968431,9.6,'11144222,11111222,11111222' 
TABS,ioos:station:wmo:42045:1,2003-05-04T18:10:00Z,26.2168,-96.4998,4.0,1412.799349,44.99968431,10.01,'11144222,11111222,11111222' 
TABS,ioos:station:wmo:42045:1,2003-05-04T18:40:00Z,26.2168,-96.4998,4.0,1412.799349,44.99968431,10.14,'11144222,11111222,11111222' 
TABS,ioos:station:wmo:42045:1,2003-05-04T19:10:00Z,26.2168,-96.4998,4.0,1412.799349,44.99968431,9.8,'11144222,11111222,11111222' 